Weather in Komsomol'skoye

Russia / Chechen Republic     43°15′50″N   45°49′33″E
temp.,
°C
wind,
m/s
gust,
m/s
humid.,
%
clouds,
%
prec.,
mm/h
press.,
hPa
HPBL,
m
8 march, mon
mon800:000e244741 0.0 1022221
03:00−1ene125521 0.0 1022233
06:00−1nnw115817 0.0 1022163
09:00+2nw124917 0.0 1020529
12:00+5nne224393 0.0 10181000
15:00+6n224092 0.0 10161268
18:00+5n2252100 0.0 1017850
21:00+3w0280100 0.1 1019384
9 march, tue
tue900:00+3s117898 0.1 1018291
03:00+2ese117994 0.1 1018116
06:00+2sse018494 0.0 101870
09:00+4wnw116490 0.0 1017506
12:00+7ne224228 0.0 10161234
15:00+9ene213626 0.0 10151594
18:00+7e214123 0.0 1017846
21:00+6ese115151 0.0 101942
10 march, wed
wed1000:00+4n4768100 0.0 1020620
03:00+2w129499 1.6 1022198
06:00+2wsw2289100 1.5 1023314
09:00+2wnw1291100 2.0 1023262
12:00+5n2350100 0.5 10221204
15:00+6n2242100 0.5 10211397
18:00+4ne2252100 0.0 10221102
21:00+3ene3468100 0.0 1023755
11 march, thu
thu1100:00+2ene3562100 0.0 1021919
03:000ene5866100 0.0 1021687
06:00−2ene4790100 0.3 1021514
09:00−1ne5889100 1.8 1020634
12:00−1ne5889100 1.8 1019658
15:00−2ne6991100 4.4 1019809
18:00−4ne5992100 1.6 1021723
21:00−6ne5893100 2.9 1024606
12 march, fri
fri1200:00−6ne4694100 1.1 1024536
03:00−6ne3694100 2.4 1025525
06:00−6ne2495100 1.4 1028334
09:00−6ene4691100 2.4 1029576
12:00−5ne3485100 0.1 1029712
15:00−4ne3482100 0.2 1029826
18:00−7ene238995 0.1 103267
21:00−9e139148 0.1 1034129